Regional Weather Roundup
Issued by NWS Wakefield, VA

Home | Current Version | Previous Version | Text Only | Print | Product List | Glossary Off
Versions: 1 2 3 4 5 6 7 8 9 10 11 12 13 14 15 16 17 18 19 20 21 22 23 24 25 26 27 28 29 30 31 32 33 34 35 36 37 38 39 40 41 42 43 44 45 46 47 48 49 50

000
ASUS41 KAKQ 290415
RWRAKQ

REGIONAL WEATHER ROUNDUP
NATIONAL WEATHER SERVICE WAKEFIELD VA
1200 AM EDT WED JUL 29 2015

Note: "fair" indicates few or no clouds below 12,000 feet with no
significant weather and/or obstructions to visibility. * = Denotes
station may not report precipitation (e.g., rain,snow,etc.),
thunder or fog.

VAZ042-051-052>054-056-290500-
NORTHERN VIRGINIA

CITY           SKY/WX    TMP DP  RH WIND       PRES   REMARKS
WASH NATIONAL  PTCLDY    81  74  79 CALM      30.01S
DULLES         CLEAR     72  71  97 CALM      30.00F
FORT BELVOIR   FOG       73  72  94 CALM      30.00S VSB 1
QUANTICO       PTCLDY    78  72  81 SW3       30.00F
FREDERICKSBRG* PTCLDY    75  75 100 CALM      30.00S FOG
STAFFORD*        N/A     71  69  96 CALM      30.04F FOG
WARRENTON      PTCLDY    73  73 100 CALM      30.00F FOG
CULPEPER*      FOG       71  71 100 CALM      30.01S VSB 1/2
MANASSAS*      CLEAR     73  73 100 CALM      30.00F
LEESBURG*      CLEAR     73  73 100 SW3       30.02R
WINCHESTER     CLEAR     72  70  94 CALM      30.02R
FRONT ROYAL*   FAIR      72  72 100 CALM      30.00S
LURAY*         FAIR      73  73 100 CALM      30.03R
$$

VAZ048-049-060>072-079>083-290500-
CENTRAL AND SOUTH CENTRAL VIRGINIA

CITY           SKY/WX    TMP DP  RH WIND       PRES   REMARKS
RICHMOND       PTCLDY    77  74  90 NE3       30.01S
CHESTERFIELD*  FAIR      73  64  73 CALM      30.02S
PETERSBURG*    FOG       75  75 100 CALM      30.00F VSB 1/4
HANOVER        CLEAR     73  73 100 CALM      30.02F FOG
TAPPAHANNOCK*  CLEAR     73  71  91 CALM      30.01F FOG
QUINTON*       MOCLDY    75  74  99 CALM      30.01R
CHARLOTTSVILLE CLOUDY    73  71  93 CALM      30.00F FOG
GORDONSVILLE*  CLOUDY    72  72 100 CALM      30.00F FOG
ORANGE*        PTCLDY    73  72  94 S3        30.02F
LOUISA*        FOG       72  70  94 CALM      30.00F VSB 1
BUMPASS*       FAIR      71  71  99 E3        30.01F
FARMVILLE*     MOCLDY    74  74 100 CALM      30.01S
CREWE*         FAIR     N/A N/A N/A CALM      30.01F
FORT PICKETT*  FAIR      73  73  97 CALM      30.02S
CHASE CITY*    CLOUDY    74  74 100 CALM      30.02R
CLARKSVILLE*   FAIR      73  73 100 CALM      30.01S
SOUTH HILL*    MOCLDY    73  73  99 CALM      30.07S
LAWRENCEVILLE* CLOUDY    75  75 100 CALM      30.01S
EMPORIA*       PTCLDY    73  73 100 CALM      30.02S FOG
$$

VAZ088>098-290500-
SOUTHEAST VIRGINIA

CITY           SKY/WX    TMP DP  RH WIND       PRES   REMARKS
NORFOLK        PTCLDY    79  71  76 S7        30.01S
VIRGINIA BEACH PTCLDY    80  72  76 S6        30.01R
NORFOLK NAVAL  PTCLDY    78  71  79 S6        30.02S
WEST POINT*    PTCLDY    78  74  88 CALM      30.02S
SALUDA*        FAIR      75  74  95 CALM      30.00S
NEWPORT NEWS   CLEAR     74  71  91 CALM      30.01S
LANGLEY AFB    CLEAR     79  74  84 S6        30.01R
FORT EUSTIS    CLEAR     79  76  90 S5        29.99S
WILLIAMSBURG*  CLEAR     79  75  89 CALM      30.02R
HR EXEC AP*    FAIR      72  66  83 CALM      30.04R
FRANKLIN*      PTCLDY    74  72  93 CALM      30.01S
WAKEFIELD      CLEAR     75  72  90 CALM      30.00F
$$

VAZ020-022-025-037-045-290500-
WEST CENTRAL AND SOUTHWEST VIRGINIA

CITY           SKY/WX    TMP DP  RH WIND       PRES   REMARKS
STAUNTON*      MOCLDY    75  73  91 CALM      30.05F
WAYNESBORO*    FAIR      71  71 100 CALM      30.05F
HOT SPRINGS VA FOG       67  67 100 SW5       30.15F VSB 1/2
LYNCHBURG      CLOUDY    73  73 100 E3        30.05R
DANVILLE       MOCLDY    74  72  93 E5        30.02R
SOUTH BOSTON*  CLOUDY    73  71  95 CALM      30.02S
MARTINSVILLE   MOCLDY    73  73 100 CALM      30.04S
ROANOKE        LGT RAIN  74  72  93 W3        30.04F
BLACKSBURG     MOCLDY    71  70  95 CALM      30.12F
DUBLIN*          N/A     71  71  98 CALM      30.09F
MARION*        PTCLDY    70  68  93 CALM      30.12F FOG
HILLSVILLE*    CLEAR     69  68  97 S3        30.10F
RICHLANDS*     FAIR      71  71  99 S5        30.10S
WISE*          CLEAR     72  72 100 CALM      30.11F FOG
ABINGDON*      MOCLDY    74  72  93 CALM      30.08F
$$

MDZ021>025-VAZ099-100-290500-
SOUTHERN MARYLAND AND THE DELMARVA PENINSULA

CITY           SKY/WX    TMP DP  RH WIND       PRES   REMARKS
PATUXENT RIVER CLEAR     74  72  93 CALM      30.00S
BAY BRIDGE APT   N/A     79  73  83 CALM      30.00F
LEONARDTOWN    PTCLDY    72  70  94 CALM      30.03S
DOVER          PTCLDY    76  72  87 SW2       29.98F
GEORGETOWN     PTCLDY    74  72  93 SW6       30.01F
EASTON         CLEAR     78  78 100 CALM      30.04F
CAMBRIDGE      CLEAR     77  73  88 CALM      30.00F
SALISBURY      CLEAR     72  71  97 CALM      30.01S
OCEAN CITY     CLEAR     75  70  84 W5        30.01F
WALLOPS ISLAND CLEAR     76  73  91 S3        30.02S
ACCOMACK*      CLEAR    N/A N/A N/A CALM      30.01S
$$

NCZ012>017-030>032-290500-
NORTH CENTRAL AND EASTERN NORTH CAROLINA

CITY           SKY/WX    TMP DP  RH WIND       PRES   REMARKS
ROANOKE RAPIDS FAIR      72  70  94 CALM      30.01R
RALEIGH        MOCLDY    79  73  82 E5        30.00S
ELIZABETH CITY PTCLDY    76  71  85 CALM      30.02S
AHOSKIE*       PTCLDY    73  67  84 CALM      30.01S
EDENTON*         N/A     77  70  78 SE5       30.01F
CURRITUCK*     PTCLDY    77  68  74 CALM      30.03R
KILL DEVIL HLS PTCLDY    76  69  79 CALM      30.01S
MANTEO         PTCLDY    76  70  81 SE5       30.02F
CAPE HATTERAS  PTCLDY    76  68  76 E5        30.01F
TARBORO*         N/A     75  71  87 CALM      30.01F
GOLDSBORO      NOT AVBL
WASHINGTON     PTCLDY    75  71  87 E3        30.01F
GREENVILLE     PTCLDY    79  72  78 S5        30.03S
NEW BERN       PTCLDY    74  70  87 CALM      30.02R
WILMINGTON     MOCLDY    75  72  90 CALM      29.99S
$$

VAZ048-290500-
ELSEWHERE

CITY           SKY/WX    TMP DP  RH WIND       PRES   REMARKS
HARRISBURG PA  PTCLDY    76  70  82 CALM      30.00R
BALTIMORE      PTCLDY    76  71  85 CALM      30.00S
ANNAPOLIS      CLEAR     78  71  79 CALM      30.00F
ANDREWS AFB    CLEAR     73  72  96 SE2       30.00F
PHILADELPHIA   PTCLDY    80  72  76 W7        30.00R
HENDERSON NC   MOCLDY    74  71  92 CALM      30.02S
GREENSBORO     CLOUDY    75  75 100 CALM      30.01F FOG
ROCKY MOUNT    PTCLDY    77  72  84 CALM      30.01R
$$

VAZ100-290500-
MARINE

STATION/POSITION TIME  TEMP    WIND        PRES    WAVE   SWELL
                       AIR SEA DIR/SP/G            HT/PER HT/PER
                 (UTC) (F)     (DEG/KT/KT) (MB)    (FT/S) (FT/S)
BRANDYWINE LGT   0300   77 74  240/ 12/ 13 1016.1R
CAPE MAY NJ      0300   76 80  200/  2/  4 1015.9R
LEWES DE         0300   76 74  230/  5/  7 1016.0R
15NM E FENWICK I 0350   79 79  210/  8/ 10 1016.3R   3/ 8   2/ 8
OCEAN-CITY-INLET 0300   77 75  260/  3/  3 1015.6R
WACHAPREAGUE VA  0300   80 85  200/  6/  8 1016.4S
GOOSES REEF MD   0400   81 82  230/  4/  6 1017.0F
COVE POINT MD    0300   79      CALM  /  2 1016.7S
SOLOMONS ISLAND  0300      84                N/A
BISHOPS HEAD MD  0300   82 85  220/  2/  3 1015.3R
POTOMAC MD       0400   82 83  190/  6/  6 1014.9S   0
CAMBRIDGE MD     0300   79 83   CALM  /  2 1015.4R
LEWISETTA VA     0300   79 84  230/  2/  3 1015.6F
RAPPAHANNOCK LGT 0300          160/ 10/ 11 1016.5F
STINGRAY PT      0400   82 83  170/ 10/ 10 1016.1R   1/ 2
YORK RVR RNG VA  0300   82     170/  7/  8 1015.5F
YORKTOWN VA      0300   78 83  220/  3/  3 1015.7F
JAMESTOWN VA     0400   81 85  120/  6/  6   N/A
DOMINION TERM VA 0300   81     160/  7/  8 1016.1R
KIPTOPEKE VA     0300      83  180/ 11/ 13   N/A
CHES BAY BRIDGE  0300   80 75  140/  8/ 10 1015.7F
CAPE HENRY VA    0300   78     160/  7/  9   N/A
CHESAPEAKE LGHT  0300   80     170/ 13/ 14 1016.7F
WILLOUBY STN VA  0300   81     160/  8/  9 1016.9F
CAPE HENRY BUOY  0328      81                N/A     2/11   2/11
1ST LANDING BUOY 0400      80              1015.9S   1/ 4
CAPE CHARLES BUO 0326      81                N/A     2/12   2/12
OFFSHORE WE BUOY 0311      81                N/A     3/11   2/11
64NM E OF VA BCH 0350   80 81  170/  6/  8 1016.4S   3/ 6   3/ 6
DUCK PIER NC     0300   79 71  140/  8/  9 1015.8R
44100 DUCK FRF   0324      81                N/A     2/11
44056 DUCK FRF   0311      80                N/A     2/11   2/11
OREGON INLET NC  0300   79 83  100/  3/  5 1016.7R
HATTERAS NC      0300   81 84   90/  6/  9 1015.9R
CAPE LOOKOUT NC  0400   81      80/ 11/ 12 1015.6R
$$


USA.gov is the U.S. government's official web portal to all federal, state and local government web resources and services.